Barking Sands, HI

10:58 PM HST on May 28, 2017 (GMT -1000)
Barking Sands PMRF

Weather History for PHBK - April, 2014

Change the Weather History Date:

Monday, April 28, 2014

  Actual Average Record
Temperature  
Mean Temperature 75 °F -  
Max Temperature 81 °F 84 °F 129 °F (2017)
Min Temperature 68 °F 63 °F 61 °F (1970)
Cooling Degree Days 10    
Growing Degree Days 25 (Base 50)    
Moisture  
Dew Point 63 °F    
Average Humidity 64    
Maximum Humidity 73    
Minimum Humidity 54    
Precipitation  
Precipitation 0.00 in - - ()
Sea Level Pressure  
Sea Level Pressure 30.01 in    
Wind  
Wind Speed 6 mph (NE)    
Max Wind Speed 21 mph    
Max Gust Speed 30 mph    
Visibility 10 miles    
Events      
Averages and records for this station are not official NWS values.
T = Trace of Precipitation, MM = Missing Value Source: NWS Daily Summary

Daily Weather History Graph

Daily Weather History Graph

Search for Another Location

Airport or City:

Trip Planner

Search our weather history database for the weather conditions in past years. The results will help you decide how hot, cold, wet, or windy it might be!

Date:

Astronomy

Apr. 28, 2014 Rise Set
Actual Time 6:09 AM HST 7:04 PM HST
Civil Twilight 5:45 AM HST 7:27 PM HST
Nautical Twilight 5:18 AM HST 7:55 PM HST
Astronomical Twilight 4:50 AM HST 8:23 PM HST
Moon 5:49 AM HST (4/28) 6:56 PM HST (4/28)
Length of Visible Light 13h 41m
Length of Day
12h 55m
Waning Crescent, 0% of the Moon is Illuminated
Apr 28
Waning Crescent
Apr 28
New
May 6
First Quarter
May 14
Full
May 21
Last Quarter

Hourly Weather History & Observations

Time (HST) Temp. Heat Index Dew Point Humidity Pressure Visibility Wind Dir Wind Speed Gust Speed Precip Events Conditions
12:56 AM - - - N/A% 30.03 in 10.0 mi Calm Calm - N/A   Clear
1:56 AM - - - N/A% 30.01 in 10.0 mi ENE 4.6 mph - N/A   Clear
2:56 AM - - - N/A% 30.00 in 10.0 mi ENE 4.6 mph - N/A   Mostly Cloudy
3:56 AM - - - N/A% 30.00 in 10.0 mi ENE 4.6 mph - N/A   Clear
4:56 AM - - - N/A% 29.99 in 10.0 mi ENE 4.6 mph - N/A   Clear
5:56 AM - - - N/A% 29.99 in 10.0 mi ESE 3.5 mph - N/A   Clear
6:56 AM - - - N/A% 30.02 in 10.0 mi NE 3.5 mph - N/A   Clear
7:56 AM 75.9 °F - 64.0 °F 67% 30.03 in 10.0 mi NNE 3.5 mph - N/A   Clear
8:56 AM 77.0 °F - 64.0 °F 64% 30.03 in 10.0 mi NNW 8.1 mph - N/A   Clear
9:56 AM 78.1 °F - 64.9 °F 64% 30.04 in 10.0 mi North 19.6 mph - N/A   Clear
10:56 AM 79.0 °F - 63.0 °F 58% 30.04 in 10.0 mi North 16.1 mph - N/A   Mostly Cloudy
11:56 AM 81.0 °F 82.2 °F 63.0 °F 54% 30.02 in 10.0 mi North 9.2 mph - N/A   Mostly Cloudy
12:56 PM 78.1 °F - 62.1 °F 58% 30.01 in 10.0 mi South 10.4 mph - N/A   Overcast
1:56 PM 80.1 °F 81.7 °F 64.0 °F 58% 30.00 in 10.0 mi SW 8.1 mph - N/A   Mostly Cloudy
2:56 PM 79.0 °F - 64.9 °F 62% 29.97 in 10.0 mi North 20.7 mph 29.9 mph N/A   Scattered Clouds
3:56 PM 81.0 °F 83.0 °F 66.0 °F 60% 29.94 in 10.0 mi North 20.7 mph - N/A   Clear
4:56 PM 80.1 °F 81.7 °F 64.0 °F 58% 29.94 in 10.0 mi North 15.0 mph 24.2 mph N/A   Partly Cloudy
5:56 PM 79.0 °F - 63.0 °F 58% 29.96 in 10.0 mi East 5.8 mph - N/A   Scattered Clouds
6:56 PM 75.9 °F - 64.9 °F 69% 29.99 in 10.0 mi ESE 4.6 mph - N/A   Partly Cloudy
7:56 PM 75.0 °F - 64.9 °F 71% 30.01 in 10.0 mi North 8.1 mph - N/A   Partly Cloudy
8:56 PM 73.0 °F - 64.0 °F 73% 30.02 in 10.0 mi NNE 6.9 mph - N/A   Clear
9:56 PM 72.0 °F - 62.1 °F 71% 30.03 in 10.0 mi NNE 5.8 mph - N/A   Clear
10:56 PM 69.1 °F - 59.0 °F 70% 30.04 in 10.0 mi East 3.5 mph - N/A   Clear
11:56 PM 68.0 °F - 59.0 °F 73% 30.04 in 10.0 mi Calm Calm - N/A   Clear